This is the latest recevied weather packets stored in our database for station/object KK7MLS-13. If no packets are shown the sender has not sent any weather packets the latest 10 day(s).
| Time | Temp. | Humidity | Pressure | Rain* | Wind** | Luminosity | Snow |
|---|---|---|---|---|---|---|---|
| 1777412740 | 15.56° C | 50% | 1023.9 hPa | 0 mm | - | 313 W/m² | - |
| 1777412438 | 16.11° C | 52% | 1024 hPa | 0 mm | - | 341 W/m² | - |
| 1777412137 | 15.56° C | 53% | 1023.8 hPa | 0 mm | - | 294 W/m² | - |
| 1777411833 | 16.11° C | 51% | 1023.9 hPa | 0 mm | - | 287 W/m² | - |
| 1777411531 | 15.56° C | 51% | 1024 hPa | 0 mm | - | 374 W/m² | - |
| 1777411226 | 14.44° C | 53% | 1024 hPa | 0 mm | - | 479 W/m² | - |
| 1777410920 | 14.44° C | 52% | 1024 hPa | 0 mm | - | 170 W/m² | - |
| 1777410620 | 15° C | 54% | 1023.8 hPa | 0 mm | - | 139 W/m² | - |
| 1777410315 | 15.56° C | 52% | 1023.9 hPa | 0 mm | - | 121 W/m² | - |
| 1777410010 | 15.56° C | 55% | 1024 hPa | 0 mm | - | 118 W/m² | - |
| 1777409704 | 16.11° C | 51% | 1023.8 hPa | 0 mm | - | 122 W/m² | - |
| 1777409401 | 16.67° C | 48% | 1023.9 hPa | 0 mm | - | 181 W/m² | - |
| 1777409096 | 16.11° C | 50% | 1023.9 hPa | 0 mm | - | 765 W/m² | - |
| 1777408793 | 15° C | 55% | 1024 hPa | 0 mm | - | 542 W/m² | - |
| 1777408489 | 15° C | 52% | 1024 hPa | 0 mm | - | 256 W/m² | - |
| 1777408184 | 15.56° C | 53% | 1023.9 hPa | 0 mm | - | 177 W/m² | - |
| 1777407879 | 15.56° C | 52% | 1024.1 hPa | 0 mm | - | 152 W/m² | - |
| 1777407578 | 15.56° C | 56% | 1024 hPa | 0 mm | - | 199 W/m² | - |
| 1777407277 | 15.56° C | 51% | 1024 hPa | 0 mm | - | 319 W/m² | - |
| 1777406971 | 15° C | 55% | 1024 hPa | 0 mm | - | 356 W/m² | - |
| 1777406671 | 15° C | 56% | 1024 hPa | 0 mm | - | 323 W/m² | - |
| 1777406367 | 15° C | 59% | 1024.1 hPa | 0 mm | - | 356 W/m² | - |
| 1777406066 | 14.44° C | 59% | 1024.1 hPa | 0 mm | - | 322 W/m² | - |
| 1777405763 | 14.44° C | 58% | 1024.2 hPa | 0 mm | - | 240 W/m² | - |
| 1777405460 | 14.44° C | 56% | 1024.4 hPa | 0 mm | - | 216 W/m² | - |
* Rain latest hour (hover to see other rain measurements)
** Current wind speed in m/s (hover to see current wind gust speed)